Theta_e
335 334 335 338 338 340 340 340 340 341 342 343 343 344 345 346 348 350 351 350 349 350 350 353 352 350 348 348 348 348 346 345 347 345 345 345 349 345 346 346 347 349 348 352 353 355 357 358 358 362 362 361 361 363 359 363 361 363 363 362 366 365 360
334 334 336 338 339 340 341 342 342 341 343 344 344 345 346 346 348 349 351 352 351 351 351 352 353 350 349 348 349 349 347 346 348 349 346 346 349 350 349 348 346 350 350 352 352 354 357 358 358 361 362 362 361 362 364 362 361 362 362 361 358 362 363
333 334 335 337 339 340 341 342 343 342 343 345 345 346 346 346 348 350 351 352 351 352 352 351 354 351 349 349 348 349 349 347 347 348 346 345 346 351 351 351 348 349 352 353 354 354 357 356 359 359 361 361 361 361 363 362 362 362 362 362 361 360 359
333 334 335 338 340 341 341 343 343 343 344 345 346 346 347 347 349 351 353 353 352 353 352 351 353 352 350 348 348 349 349 348 348 348 347 346 346 347 353 353 352 352 352 353 355 355 355 355 355 359 366 360 360 362 362 363 363 363 363 362 361 361 360
334 335 337 339 340 340 341 342 344 344 344 346 347 347 347 349 349 352 354 355 354 353 354 353 354 354 352 350 350 350 349 348 348 348 348 347 348 346 349 353 353 353 353 353 355 356 353 354 353 360 361 360 360 362 362 363 363 363 362 362 360 361 360
333 334 335 338 339 340 341 342 343 344 344 346 347 348 348 349 350 351 354 356 355 356 355 354 353 355 352 351 350 350 350 350 349 349 348 347 348 346 346 350 354 354 353 352 353 355 353 353 353 357 358 360 360 361 362 362 362 364 362 362 360 360 361
334 334 334 337 339 340 342 342 343 345 346 346 349 350 349 349 350 350 353 356 357 356 355 354 354 354 354 352 350 349 349 350 350 349 349 348 348 348 347 348 353 354 354 354 351 352 354 352 354 354 358 360 360 361 360 361 361 363 362 361 359 359 359
334 333 334 337 338 340 343 344 345 345 346 347 347 349 349 350 350 350 351 355 357 358 357 356 355 354 355 354 351 349 349 350 351 351 350 348 348 349 348 348 350 353 353 353 352 351 352 354 355 355 357 358 359 359 360 360 360 362 361 361 359 359 361
334 334 335 337 339 341 344 346 346 345 345 345 349 349 349 350 350 350 351 354 357 357 357 357 357 356 356 355 353 350 350 350 350 351 350 349 349 350 350 350 350 353 353 353 353 352 350 355 355 356 356 356 357 357 358 359 359 360 360 360 360 358 360
334 334 334 337 339 342 344 346 347 346 345 346 347 348 349 350 351 352 352 353 356 356 358 358 358 357 356 355 354 353 351 350 350 351 351 349 349 350 352 352 351 354 354 353 354 353 351 353 355 357 356 355 355 356 357 358 359 359 359 359 360 359 359
335 335 335 336 337 339 342 343 344 344 345 345 346 347 348 349 350 351 351 353 354 357 359 359 360 358 357 356 355 354 353 351 351 350 351 351 351 351 353 354 353 354 355 354 353 354 352 351 355 356 357 356 356 356 357 357 358 358 358 359 360 360 359
334 336 335 336 337 338 340 341 342 343 345 346 346 346 346 348 349 349 350 351 353 355 358 360 361 359 357 356 355 354 353 353 351 351 350 351 351 352 353 354 355 354 356 356 354 354 354 351 352 355 357 357 357 358 357 358 358 358 357 358 359 359 360
334 335 335 336 336 337 339 340 341 342 343 345 346 346 346 347 348 348 349 350 352 354 357 360 360 359 358 357 355 355 354 353 352 351 351 351 351 352 353 354 355 355 355 357 355 354 354 353 352 354 356 357 358 358 358 357 358 358 357 357 358 359 359
341 334 335 335 336 336 336 339 340 341 342 343 345 346 346 347 348 348 348 348 351 353 356 360 360 359 358 357 356 354 354 354 354 353 352 352 352 352 353 354 355 356 356 357 356 354 354 353 353 353 356 358 358 359 359 357 357 357 357 356 356 357 358
333 334 335 336 337 339 341 343 342 341 342 343 344 345 345 346 347 348 349 349 350 352 354 359 360 359 359 358 356 355 354 355 355 354 354 354 353 353 353 354 355 357 357 357 356 356 354 354 354 354 355 357 358 358 359 358 356 357 357 356 355 356 357
334 336 336 337 337 340 344 342 343 349 347 346 345 345 345 346 347 348 349 350 351 352 355 359 361 360 359 358 358 357 355 355 355 355 355 354 353 353 354 354 355 357 357 357 357 356 354 353 354 355 355 356 357 357 358 359 358 355 348 350 356 355 356
331 333 336 338 341 341 341 346 345 346 345 343 343 345 346 345 346 349 351 352 352 354 356 360 360 360 359 359 360 358 356 356 355 355 354 354 354 353 354 354 355 356 357 357 357 356 354 353 353 354 356 356 357 356 357 359 359 346 338 340 346 355 355
328 331 333 334 337 339 340 341 345 346 346 349 349 348 347 346 347 346 345 349 355 356 358 360 360 360 360 360 360 359 357 356 356 355 355 355 354 354 354 355 355 355 356 357 356 356 355 352 353 354 355 357 357 357 357 357 352 338 335 337 338 348 357
326 329 330 333 334 337 339 340 341 344 349 346 348 348 347 347 348 346 348 345 344 354 358 359 360 360 360 361 360 359 358 357 357 356 355 355 355 355 355 355 355 354 355 356 356 356 354 353 353 354 355 356 357 357 358 357 346 335 333 335 335 337 351
324 326 329 331 336 336 338 340 341 343 347 353 354 347 347 350 347 347 349 349 350 349 355 358 359 359 360 360 360 359 359 358 357 356 356 356 356 355 355 354 354 355 355 357 357 355 355 354 352 354 355 356 357 358 359 358 346 332 330 331 332 334 342
322 325 327 329 331 332 335 338 340 341 342 344 348 353 353 346 347 348 349 351 350 352 355 357 358 359 360 360 360 360 359 358 358 356 356 356 356 356 355 354 355 355 355 355 356 355 354 354 353 353 355 356 357 358 359 361 340 328 328 328 328 331 338
321 323 325 328 328 330 332 335 336 337 339 344 346 348 352 355 359 352 349 352 353 355 357 357 357 358 359 359 360 360 360 359 358 357 357 357 357 356 355 355 355 355 356 355 355 356 356 355 355 353 354 356 357 357 357 360 333 327 326 326 327 330 345
321 321 323 327 329 329 331 333 334 337 340 342 345 347 350 353 355 355 355 353 354 356 357 356 356 357 359 359 360 360 361 360 359 358 357 357 357 356 356 355 355 356 357 354 353 355 355 355 355 355 354 354 356 356 356 358 336 326 324 325 326 330 350
321 321 322 324 327 328 329 331 335 337 339 340 343 346 349 351 353 355 355 355 355 355 356 356 355 358 359 359 361 361 361 361 360 358 358 357 357 357 357 357 357 356 357 355 352 353 356 356 356 355 355 354 354 357 356 357 339 322 322 323 323 335 352
320 320 322 323 325 325 327 330 333 336 337 338 339 342 346 348 350 352 354 356 355 355 354 355 355 357 359 360 361 362 362 362 361 360 359 358 358 358 358 358 357 357 357 356 354 353 356 358 356 356 356 355 355 356 355 357 342 318 322 321 321 334 353
319 319 321 323 325 327 327 330 329 331 332 334 336 340 343 346 350 353 355 357 357 355 353 355 356 357 360 361 362 363 363 363 362 361 360 359 359 359 359 360 359 357 356 356 355 353 354 357 357 356 356 357 356 356 355 354 355 328 318 318 318 324 353
319 320 320 321 323 328 325 326 328 329 331 333 337 339 342 345 347 351 355 357 357 355 354 355 357 357 360 362 362 363 363 364 363 362 362 361 360 360 360 360 359 358 357 356 356 354 353 356 357 357 357 357 357 356 356 355 354 337 316 316 317 319 335
317 320 321 323 324 325 325 326 327 328 330 333 336 339 342 345 348 351 354 357 357 357 357 355 355 357 359 362 362 363 364 364 364 364 363 363 362 360 360 361 361 359 358 357 355 354 353 354 356 357 357 358 358 357 357 356 348 350 318 316 314 317 322
316 317 318 319 321 324 326 325 325 327 329 332 334 337 339 342 344 349 354 357 359 360 357 355 355 356 359 362 362 363 363 364 364 364 365 364 363 361 360 360 360 359 358 356 355 353 352 352 355 356 357 357 358 357 357 358 355 339 331 316 314 314 317
316 317 319 320 322 324 325 324 326 327 328 330 332 334 336 338 342 348 353 357 362 361 358 356 357 357 358 361 362 363 363 365 366 366 366 365 364 363 361 361 361 360 358 357 355 353 351 351 353 355 356 356 357 358 358 359 360 339 330 326 313 313 314
315 316 318 319 320 322 324 324 324 326 327 328 330 332 335 339 343 348 351 357 361 361 359 357 357 356 357 360 362 362 363 365 366 366 366 366 365 363 363 362 362 360 359 357 355 353 351 351 351 351 353 355 356 357 358 359 360 357 336 325 317 314 313
315 317 318 320 319 321 322 323 324 325 326 327 329 331 334 338 343 346 351 357 358 362 362 358 357 356 356 359 361 362 363 364 365 366 366 366 366 365 365 363 362 361 360 358 356 354 352 351 350 350 350 352 355 356 358 359 359 359 348 331 323 318 315
315 316 318 318 319 322 320 321 322 324 326 326 328 331 333 336 339 343 348 354 357 362 363 358 358 356 357 359 361 362 362 363 363 364 365 365 365 366 366 365 364 362 359 359 358 356 354 352 351 350 349 349 352 355 357 358 358 358 349 341 335 332 328
315 316 316 318 320 321 321 321 322 323 325 326 327 329 332 334 335 338 345 351 356 358 362 359 358 357 358 359 361 361 362 362 360 362 364 364 364 365 365 365 365 363 360 359 359 357 355 353 352 351 350 349 350 351 353 355 357 359 352 344 341 337 335
316 315 315 317 318 321 320 322 322 324 325 325 326 328 330 331 333 336 339 342 348 356 361 360 357 358 359 360 361 361 360 362 361 362 363 363 363 365 366 365 365 363 362 364 364 361 358 356 355 354 354 353 351 350 350 353 355 359 340 347 329 336 339
316 314 315 318 317 318 320 322 323 324 325 324 325 327 329 330 331 334 336 339 343 355 362 363 362 359 359 361 361 361 360 360 361 362 362 363 362 362 343 317 303 314 355 362 350 341 336 336 355 357 357 355 354 354 351 352 356 337 325 320 317 317 321
315 313 316 318 316 317 317 320 324 325 324 324 324 326 328 328 330 332 334 337 340 348 353 357 361 361 360 360 360 358 360 360 360 361 361 362 363 361 349 341 333 305 299 305 329 332 322 320 328 333 337 353 356 350 336 337 333 318 315 314 313 312 313
316 316 318 317 317 319 317 320 322 324 324 322 323 324 326 327 329 330 333 336 337 345 352 355 354 354 358 360 361 357 356 360 360 360 360 360 359 353 348 347 343 335 310 300 301 314 318 319 320 319 323 329 339 348 345 330 321 313 310 312 312 312 311
Wind_Speed
19 18 17 15 17 17 15 16 16 16 17 17 17 17 18 17 17 16 16 17 19 17 16 15 16 15 16 14 13 12 12 11 10 10 9 9 9 10 9 7 7 7 7 7 7 8 7 8 8 8 7 8 6 5 6 5 6 5 4 5 5 6 7
17 19 17 15 16 17 18 17 14 15 16 17 17 18 18 19 17 18 18 19 20 20 19 17 16 16 16 15 13 13 13 13 12 10 9 8 7 9 10 9 9 8 8 7 7 6 6 7 8 8 9 8 8 6 6 6 6 5 5 4 5 3 5
19 18 16 15 15 14 17 17 15 14 17 17 19 18 19 19 19 20 19 20 20 19 17 17 17 17 16 15 14 14 14 13 12 12 12 12 11 11 10 10 9 9 8 7 7 7 6 7 7 8 9 9 8 8 6 6 6 6 5 5 5 5 3
19 18 18 18 17 16 17 18 19 17 16 19 20 21 19 20 18 18 18 20 21 19 19 18 17 16 15 15 15 15 15 14 14 13 13 12 12 10 9 9 9 8 7 8 9 8 7 7 7 7 9 9 9 8 7 7 6 6 6 6 5 5 5
20 20 19 16 15 16 16 16 18 17 16 19 20 20 18 18 18 16 16 18 20 21 21 20 16 15 14 15 13 13 15 16 14 13 12 11 11 10 10 11 10 10 10 9 8 9 8 8 8 7 8 9 9 8 8 7 7 7 6 6 6 6 6
19 18 18 17 17 17 17 17 18 18 17 18 19 19 18 17 17 19 18 19 19 19 18 17 17 16 16 15 14 13 13 14 14 13 13 12 12 11 12 11 11 11 11 11 8 9 10 9 10 8 9 8 9 9 8 8 7 8 7 7 7 7 6
19 20 17 18 18 17 18 18 18 17 15 16 16 16 17 17 18 18 17 18 19 20 20 19 19 17 15 14 15 15 15 15 14 15 13 13 13 13 12 11 11 11 11 10 10 9 10 11 11 10 10 10 9 10 9 9 8 8 8 7 7 7 7
21 18 17 19 19 18 17 17 17 16 14 12 14 16 18 18 17 17 18 18 19 19 19 20 19 17 16 15 15 16 16 16 15 14 13 14 14 14 13 12 11 12 10 11 12 11 11 11 11 11 11 10 10 10 10 9 9 9 8 8 8 8 6
19 19 18 18 19 18 17 17 17 18 18 16 14 17 19 18 17 17 17 17 17 19 20 20 19 17 15 15 15 17 16 16 15 14 15 16 14 15 14 13 12 11 12 12 11 11 11 11 11 12 12 11 10 9 10 10 10 8 9 9 10 10 8
17 16 17 16 16 15 15 15 15 15 16 16 14 13 16 17 17 16 16 17 17 20 20 19 17 17 16 16 16 16 15 15 15 17 16 16 15 16 15 14 13 12 12 13 11 12 11 11 11 11 12 12 11 10 10 10 10 10 10 11 10 10 10
17 17 15 15 15 15 15 15 16 16 17 17 17 15 15 15 15 16 16 16 17 17 18 17 16 17 17 17 17 17 16 16 16 17 17 17 15 16 16 15 14 12 13 12 12 12 11 11 10 11 12 12 12 12 11 11 12 12 11 10 10 11 10
16 15 14 16 17 14 16 17 17 16 16 17 17 16 15 14 15 15 15 16 14 13 15 17 16 17 16 16 17 17 18 17 17 18 18 18 16 17 16 15 14 14 13 13 14 12 12 12 11 11 12 12 12 12 12 11 12 12 12 12 11 10 10
17 15 16 17 17 16 13 13 16 16 17 17 17 16 15 15 16 15 14 14 14 14 14 14 16 16 16 17 18 17 18 18 18 17 17 17 16 15 14 15 14 14 14 13 14 13 13 13 13 11 12 12 12 12 12 11 11 12 12 11 10 10 10
11 6 3 3 5 7 11 16 18 17 17 17 15 15 15 15 16 16 16 16 16 16 15 13 15 15 16 16 17 17 18 18 17 17 17 16 15 15 15 15 14 14 14 13 14 14 14 14 14 12 12 12 12 12 12 11 11 11 11 10 10 10 10
18 15 19 18 14 13 9 3 3 10 14 16 16 15 16 15 14 13 13 14 15 16 17 15 14 15 16 16 17 17 17 15 15 14 15 16 15 15 15 15 14 13 13 13 14 13 13 14 14 14 13 12 12 12 11 11 11 9 10 11 11 10 11
18 17 16 14 14 14 10 8 6 3 2 1 5 10 12 11 11 13 14 16 15 16 17 15 15 16 16 16 16 15 14 15 14 14 15 15 16 16 15 15 15 14 14 14 14 13 12 13 14 14 14 14 13 12 11 10 9 12 17 15 12 11 10
19 18 16 15 15 15 14 8 7 7 5 5 9 11 10 9 9 6 10 13 14 15 15 15 15 15 16 16 15 14 14 14 14 14 15 16 15 15 15 15 14 14 14 14 14 14 12 11 14 14 13 14 13 14 12 11 10 17 17 18 19 13 10
16 16 17 16 15 14 13 16 14 8 6 5 3 5 6 7 7 5 9 12 12 15 13 15 14 15 15 15 14 14 15 14 15 15 15 15 15 15 15 14 14 14 13 13 15 13 13 12 12 14 13 13 13 13 12 11 14 18 19 19 19 17 12
16 15 14 14 14 12 12 13 13 12 6 4 4 3 8 9 8 7 8 6 14 15 12 14 14 14 14 14 15 15 15 14 15 15 15 15 15 14 14 14 14 14 14 15 14 13 14 14 11 12 13 13 13 13 13 12 15 18 19 19 19 19 16
15 15 14 14 12 11 11 12 13 13 12 9 2 3 2 3 7 7 10 11 11 14 16 12 13 14 15 15 16 15 15 15 15 16 15 14 14 14 15 14 14 14 13 12 13 14 14 14 13 11 12 13 13 13 12 13 14 18 19 19 19 19 16
14 14 14 13 12 12 10 10 9 12 13 12 11 8 1 6 5 5 7 10 13 15 17 13 12 13 14 15 16 16 15 16 16 16 15 14 14 14 15 15 14 14 13 12 13 14 15 15 14 11 11 12 13 12 12 12 16 18 19 19 19 19 16
14 14 15 13 13 13 12 12 11 13 13 10 11 10 8 3 2 6 11 13 15 16 16 14 13 13 15 15 16 18 17 17 16 16 15 15 15 15 16 15 15 14 13 12 11 12 12 12 13 13 11 11 13 13 13 12 18 19 20 20 20 19 12
14 13 13 13 13 13 14 12 13 13 11 11 10 10 9 10 9 7 4 6 15 17 15 15 15 13 15 17 17 17 17 17 17 16 16 16 16 16 16 16 15 14 11 12 12 11 13 13 13 12 12 11 11 14 13 12 16 20 21 21 22 15 10
13 12 12 13 13 14 14 14 13 13 12 13 11 10 10 11 11 10 10 8 6 8 13 15 16 14 14 16 17 18 17 16 16 17 16 16 17 17 16 15 14 14 12 12 12 12 13 12 12 12 12 13 12 12 12 12 13 21 21 21 21 18 13
12 13 12 12 13 15 16 14 14 13 13 13 14 14 14 14 12 11 11 11 9 8 11 14 16 15 15 16 15 15 16 16 16 16 17 17 17 16 16 16 15 14 12 12 11 11 10 11 11 11 11 12 13 14 12 10 11 19 21 22 21 18 12
15 16 13 13 11 11 13 14 15 14 13 13 13 14 15 15 13 11 10 12 11 10 11 14 16 16 12 11 12 14 15 15 17 17 17 17 16 15 15 13 12 14 14 13 11 10 9 11 11 12 11 11 11 11 12 10 7 13 20 21 21 23 15
11 12 14 14 13 12 10 11 11 13 13 11 12 13 13 13 13 13 12 12 12 13 13 12 13 12 10 11 13 14 16 15 16 17 16 15 14 13 13 12 13 14 14 14 12 11 10 11 11 12 11 11 10 10 11 12 10 11 20 19 21 22 19
10 11 11 11 14 13 12 11 11 12 14 13 13 13 13 12 13 14 13 12 13 14 13 11 10 11 11 12 14 15 15 15 15 15 14 13 13 13 13 13 13 13 14 12 12 13 12 9 10 11 11 10 11 11 11 12 16 10 16 21 22 22 24
11 13 14 14 14 14 15 13 13 12 13 13 15 14 14 15 16 16 15 14 15 14 13 10 9 12 13 12 13 14 15 14 14 13 11 12 14 14 13 11 12 13 12 13 13 13 13 11 9 11 11 11 10 10 11 10 12 17 13 19 21 23 23
9 11 12 13 13 14 16 14 14 14 14 14 14 13 13 13 15 15 16 17 15 14 12 10 10 11 13 13 14 14 13 14 14 13 13 13 13 13 13 12 12 12 11 12 13 12 13 11 9 9 11 11 11 10 11 10 10 13 19 17 22 22 24
9 10 11 12 12 14 13 15 16 16 15 15 16 15 14 13 13 17 17 17 15 16 13 11 10 12 13 14 14 14 14 13 12 13 13 13 13 13 13 13 12 12 12 12 12 12 13 12 11 10 10 11 11 11 11 10 10 10 14 20 21 22 22
8 8 10 11 12 14 13 14 15 16 17 17 17 17 15 14 14 16 17 16 17 18 13 11 11 13 14 14 13 14 14 14 13 13 14 13 12 13 12 13 12 12 12 12 12 13 13 12 12 12 10 10 11 11 11 11 10 10 9 11 16 18 22
7 9 10 10 11 13 12 13 14 16 18 18 17 15 16 17 17 16 16 16 16 17 12 10 12 13 13 14 13 13 13 15 13 12 13 13 12 11 11 12 12 13 12 12 13 14 14 13 13 13 12 11 10 10 11 11 11 9 8 10 10 10 13
8 9 9 11 11 13 12 13 14 15 16 15 16 16 16 16 17 18 18 17 15 16 12 10 11 13 14 14 13 12 13 13 16 15 11 12 12 12 12 12 13 13 14 15 15 15 14 13 14 14 14 13 11 10 9 10 10 10 11 11 11 10 8
3 5 9 11 12 13 12 11 13 14 15 15 15 16 15 17 16 17 19 17 17 14 13 9 11 13 13 13 12 12 12 12 12 12 12 11 12 11 11 12 13 12 11 11 11 12 13 14 14 13 13 13 12 12 10 9 11 13 13 13 15 14 11
2 3 5 5 8 10 11 12 13 14 16 14 15 15 16 16 16 17 17 16 16 15 11 11 6 8 11 11 11 11 11 11 11 11 11 12 12 11 4 11 11 5 6 10 14 15 16 12 12 13 12 12 12 13 14 14 13 10 17 18 19 19 21
4 3 3 6 8 11 13 13 13 14 16 15 15 16 16 16 16 17 17 17 16 14 11 9 7 5 6 8 9 11 11 11 10 11 11 11 12 11 9 6 4 12 11 9 6 13 16 16 15 13 14 13 11 12 16 13 9 15 18 18 19 20 20
3 0 2 5 7 9 13 14 14 14 14 15 14 16 16 17 17 17 17 17 17 15 9 7 5 5 4 3 4 8 10 9 10 11 12 10 8 7 8 9 9 2 12 13 11 2 8 10 13 16 18 17 14 9 5 5 10 16 17 19 20 21 20
Wind_Direction
180 186 191 188 185 184 181 182 180 177 174 175 175 171 174 173 172 173 174 178 183 182 185 184 184 183 184 185 186 186 186 183 182 181 180 181 180 181 182 185 179 185 179 175 183 181 178 181 179 178 178 184 184 176 184 175 173 176 147 138 141 166 173
185 188 191 184 179 182 183 180 177 176 175 175 177 175 177 177 175 175 176 179 183 183 184 186 185 187 186 186 186 186 187 188 184 183 183 181 180 181 182 183 182 185 185 188 182 182 176 185 180 176 180 179 184 181 178 172 164 154 148 151 151 150 153
187 185 187 185 183 179 178 181 183 179 177 177 179 179 179 180 179 178 176 178 181 185 185 187 188 188 187 186 184 188 190 188 187 186 185 186 185 181 183 181 186 185 188 184 181 186 186 187 185 178 177 178 178 182 177 174 168 163 161 157 160 169 165
184 185 188 187 187 184 179 180 184 184 180 181 182 182 180 180 179 178 177 177 179 182 184 189 189 190 189 187 188 188 190 191 191 190 190 187 187 182 178 183 185 185 184 190 188 188 192 190 185 178 178 176 179 179 179 176 173 169 169 169 170 174 182
186 185 183 181 180 181 181 180 183 183 183 181 182 182 181 178 178 176 177 178 180 183 186 186 188 190 192 192 191 190 191 191 192 193 192 190 188 185 183 184 185 187 191 189 186 186 191 191 193 178 180 177 177 178 178 176 177 174 173 173 176 177 185
185 180 180 182 181 182 183 184 184 185 185 180 178 181 183 179 179 180 177 176 181 183 183 184 188 188 192 194 194 193 192 193 192 191 192 190 187 190 191 188 186 188 187 193 185 187 188 190 191 185 179 182 179 180 177 179 180 177 181 175 181 180 182
182 181 180 180 181 181 183 184 185 184 182 182 178 179 182 182 183 182 177 178 178 180 183 186 188 188 193 193 197 194 192 192 191 192 191 191 191 193 194 192 189 190 191 188 194 187 188 190 190 188 184 181 182 180 181 182 182 182 181 181 183 184 183
180 181 179 178 180 179 181 182 183 182 176 173 176 181 183 185 183 181 182 179 178 180 184 187 188 190 189 192 196 197 195 195 192 192 190 191 192 195 194 195 193 192 189 189 195 193 192 191 189 188 185 183 184 181 182 184 183 182 180 185 186 191 188
177 178 174 177 177 178 179 178 181 182 178 179 177 180 183 183 182 181 182 179 181 182 187 187 188 188 187 191 194 199 198 194 194 192 192 193 194 196 195 197 196 192 193 194 193 194 196 192 189 187 186 186 184 183 182 184 186 185 185 188 188 191 196
179 180 183 177 175 175 175 175 177 175 178 180 181 176 178 181 181 176 176 180 182 187 186 186 186 186 187 190 195 198 197 198 196 194 194 196 196 197 196 194 196 194 195 196 194 194 196 193 189 185 186 187 187 186 185 185 188 191 190 190 189 192 195
182 184 179 176 179 177 172 176 179 180 181 183 183 182 181 180 179 178 179 178 181 185 185 186 185 187 189 191 194 195 198 200 198 197 196 197 198 199 196 195 194 195 196 195 197 196 194 195 189 185 186 188 188 189 189 189 190 192 194 193 193 193 194
183 180 177 180 181 179 178 180 180 180 185 188 186 183 184 184 184 186 184 185 179 176 183 186 186 187 188 190 193 196 198 199 199 200 199 198 198 198 197 196 194 194 196 194 196 195 194 193 192 187 188 190 190 190 192 190 191 193 195 195 192 193 195
175 177 183 184 183 185 181 176 181 183 186 189 189 187 187 187 188 190 188 184 185 188 189 187 186 186 188 190 194 196 199 198 200 199 199 199 199 198 197 197 195 194 196 195 197 195 194 193 193 192 190 192 191 192 193 192 193 194 195 195 192 192 194
162 154 151 179 187 180 184 184 184 184 185 187 190 189 191 191 191 191 190 189 190 191 193 193 188 186 188 189 195 199 200 200 198 198 198 198 198 198 197 196 196 195 195 195 198 198 195 192 192 192 192 193 193 194 192 193 192 194 195 195 192 191 195
61 54 50 40 37 47 41 19 245 204 189 187 187 188 191 190 193 193 194 196 194 194 197 195 189 187 188 191 195 199 199 198 198 197 196 195 195 197 197 197 196 194 193 195 199 200 198 193 191 191 193 193 194 195 194 195 197 193 193 194 195 193 196
56 60 64 58 43 22 21 35 37 67 119 229 203 195 191 189 190 193 194 198 198 199 197 192 190 187 189 193 196 195 195 196 196 196 196 195 196 198 197 195 195 193 192 193 196 198 199 194 191 192 193 193 194 194 194 196 199 198 193 192 193 195 197
44 41 42 47 49 34 355 10 45 38 48 79 97 83 61 40 15 325 234 207 205 203 199 194 188 189 190 194 193 191 191 193 197 195 197 197 196 197 197 196 195 194 192 192 193 196 198 194 192 193 193 194 194 195 196 196 198 196 193 194 195 194 197
38 39 33 28 32 31 13 1 12 34 45 27 45 82 117 133 126 89 357 316 243 206 198 192 190 190 192 191 187 188 190 194 194 196 198 196 198 197 198 196 195 195 192 191 191 193 195 196 194 193 193 195 195 197 199 200 198 192 194 194 195 195 198
26 30 31 30 19 22 11 359 356 358 19 63 34 106 140 134 132 148 166 194 307 294 210 194 190 189 189 188 188 189 190 190 193 196 197 197 197 197 198 198 197 196 193 193 191 190 194 197 190 194 192 192 193 197 199 203 199 193 193 195 196 198 199
22 20 21 23 21 5 7 359 353 336 7 1 7 162 137 144 164 182 174 168 194 253 251 200 193 190 189 188 189 190 189 190 192 196 197 196 196 196 198 200 201 199 196 192 189 191 194 196 196 191 192 192 192 195 198 202 196 192 193 195 197 200 199
20 12 12 10 8 359 9 356 345 329 348 355 351 354 153 185 192 193 204 195 207 217 232 209 195 190 189 190 189 188 189 191 192 194 194 194 195 195 198 200 202 201 197 193 191 191 193 194 197 192 190 192 191 191 195 203 191 189 192 196 198 201 198
13 9 6 2 1 351 352 354 345 337 336 334 339 338 335 342 200 211 218 219 213 219 220 208 198 192 188 191 189 191 191 190 192 193 192 193 193 196 198 199 200 200 198 196 193 195 193 197 196 194 190 189 191 193 196 198 184 187 190 195 199 196 196
6 8 358 353 353 350 350 344 339 334 329 330 330 328 324 321 317 301 268 224 226 212 208 203 202 195 191 191 191 192 191 190 190 192 193 192 193 196 197 197 199 200 197 199 194 189 194 195 195 194 195 191 188 193 197 199 185 185 189 194 197 187 198
3 7 359 349 343 350 343 339 336 335 333 330 325 326 329 325 322 313 304 283 267 233 214 202 205 199 192 194 192 190 189 189 190 192 193 193 196 196 197 196 197 199 195 199 197 193 192 193 195 195 197 197 195 190 192 199 186 187 189 193 192 185 195
0 2 358 352 346 349 339 339 337 335 336 333 332 331 324 318 311 307 302 297 278 255 230 213 207 202 195 196 191 188 188 188 190 193 194 196 198 196 195 195 194 195 196 201 202 199 188 190 194 195 197 199 201 195 189 194 185 191 192 193 189 189 196
358 358 351 347 346 345 338 334 335 339 336 332 328 323 320 319 314 303 293 291 287 266 244 224 214 207 196 184 186 189 189 190 191 193 195 198 197 197 197 192 191 194 196 200 201 200 192 187 192 194 198 197 199 200 200 196 176 190 196 193 190 190 191
2 348 345 342 342 340 342 336 332 331 327 327 322 320 316 315 311 305 301 293 286 271 255 237 219 206 187 180 187 190 191 192 193 194 196 196 196 196 195 193 195 193 194 197 199 200 198 190 190 194 196 197 199 201 199 205 194 187 192 195 191 194 193
0 348 341 340 340 344 342 337 333 330 333 331 329 326 322 316 307 301 297 292 283 273 260 247 218 202 190 182 187 191 192 194 194 193 193 192 190 193 198 198 195 194 195 195 196 198 200 194 189 192 194 197 199 202 203 202 202 179 193 191 194 194 198
359 347 342 342 347 346 342 340 339 340 337 334 334 331 325 321 310 304 297 288 283 278 263 242 214 200 192 185 186 190 192 193 190 190 191 191 191 193 197 194 195 195 193 194 195 197 199 197 190 191 192 196 198 201 204 200 204 183 183 195 194 197 200
356 348 340 339 341 341 343 340 338 338 338 336 332 326 322 316 307 302 300 295 294 286 263 237 210 200 193 188 188 187 191 190 189 189 191 189 187 191 193 193 196 195 193 194 194 196 199 200 195 189 190 193 196 200 203 201 199 189 186 190 197 198 200
355 345 338 337 337 342 346 344 339 337 336 340 334 328 321 316 307 303 299 298 301 290 259 230 209 197 196 192 189 187 188 186 188 189 190 189 186 190 193 194 191 195 196 193 197 198 199 200 198 196 191 191 195 198 200 199 199 193 195 190 192 197 200
352 350 341 337 343 345 345 344 341 340 339 337 335 331 325 318 315 311 305 305 304 294 254 220 206 200 197 193 189 188 184 185 188 188 190 189 190 193 193 193 194 198 196 196 199 199 199 199 199 201 197 195 194 196 198 198 201 193 188 197 193 198 202
351 350 342 339 338 338 345 352 343 339 340 336 334 332 329 325 320 314 307 304 304 301 253 217 202 201 199 193 189 186 185 185 187 188 189 190 191 193 193 195 197 198 198 199 201 200 201 198 198 200 201 202 197 195 195 199 201 191 183 187 191 204 208
357 342 344 340 334 341 342 353 346 338 337 337 338 333 327 324 321 317 315 315 312 314 287 222 203 200 197 194 187 186 187 190 186 183 185 190 193 194 195 197 199 201 202 201 199 198 197 197 197 199 199 202 199 194 195 198 199 194 188 191 193 194 188
33 349 338 341 341 339 338 345 344 339 341 339 335 331 329 326 322 321 320 320 316 310 311 264 212 201 199 192 188 188 187 187 185 185 184 189 192 198 194 197 203 207 213 212 206 203 199 197 199 200 200 198 197 196 200 197 201 207 190 184 181 179 182
66 2 328 331 336 333 330 345 348 343 341 341 336 332 332 327 320 322 320 319 318 317 319 317 269 216 201 194 191 188 187 186 184 186 186 187 189 186 109 38 58 33 212 212 205 208 210 202 204 200 194 197 202 199 196 203 210 171 165 177 179 184 183
17 1 329 338 337 341 341 341 349 345 344 342 338 334 331 326 323 322 321 320 319 316 315 315 313 271 224 202 199 192 186 184 183 185 187 188 187 185 162 136 56 48 38 360 289 204 202 204 209 203 198 194 201 206 211 211 169 162 173 171 179 186 192
12 81 336 346 335 337 342 343 350 348 343 339 336 335 331 330 327 325 323 325 320 311 303 311 311 301 290 258 236 200 186 182 186 186 191 188 173 154 159 166 163 118 31 30 12 17 176 188 196 190 186 197 192 170 196 201 190 174 169 179 181 188 193